Weather Roundup
Issued by NWS Springfield, MO

Home | Current Version | Previous Version | Text Only | Print | Product List | Glossary On
Versions: 1 2 3 4 5 6 7 8 9 10 11 12 13 14 15 16 17 18 19 20 21 22 23 24 25 26 27 28 29 30 31 32 33 34 35 36 37 38 39 40 41 42 43 44 45 46 47 48 49 50
000
NZUS99 KSGF 121757
HRRSGF

HOURLY WEATHER
NATIONAL WEATHER SERVICE SPRINGFIELD MO
1200 PM CST FRI FEB 12 2016

......SGF CWA......

CITY           SKY/WX    TMP DP  RH WIND       PRES   REMARKS
SPRINGFIELD    SUNNY     43  23  45 NW17G23   30.33R
6HR MIN TEMP:  25; 6HR MAX TEMP:  43;

JOPLIN         SUNNY     41  25  53 N14       30.39R
6HR MIN TEMP:  24; 6HR MAX TEMP:  42;

WEST PLAINS    SUNNY     45  23  42 NW9G20    30.28R
6HR MIN TEMP:  22; 6HR MAX TEMP:  45;

ROLLA          LGT RAIN  35  23  61 NW13      30.29S WCI  26
6HR MIN TEMP:  26; 6HR MAX TEMP:  36; 6HR PCP: TRACE;

BRANSON        MOSUNNY   46  25  42 N14G21    30.31R

......SURROUNDING SGF CWA......

CITY           SKY/WX    TMP DP  RH WIND       PRES   REMARKS
CHANUTE        SUNNY     41  25  53 N17G24    30.42S
PARSONS        SUNNY     42  26  53 N15G22    30.42S
EMPORIA        CLOUDY    37  25  61 N15G21    30.44R WCI  28
HARRISON AR    SUNNY     47  26  44 NW12      30.30R

......KANSAS AND MISSOURI......

CITY           SKY/WX    TMP DP  RH WIND       PRES   REMARKS
KANSAS CTY INT MOSUNNY   34  21  59 NW14      30.43R WCI  25
SEDALIA        PTSUNNY   35  21  56 N24G30    30.40R WCI  23
ST JOSEPH      MOSUNNY   29  16  58 N17       30.47R WCI  17
ST LOUIS       CLOUDY    33  23  66 NW17      30.30F WCI  22
WICHITA        CLOUDY    37  26  64 N15       30.44R WCI  28
TOPEKA         PTSUNNY   38  22  52 N10G20    30.46S WCI  31
OLATHE         SUNNY     36  22  56 NW14G25   30.42S WCI  27

......TENNESSEE......

CITY           SKY/WX    TMP DP  RH WIND       PRES   REMARKS
MEMPHIS        NOT AVBL
NASHVILLE      CLOUDY    41  23  48 N5        30.20F

......ARKANSAS.......

CITY           SKY/WX    TMP DP  RH WIND       PRES   REMARKS
FAYETTEVILLE   SUNNY     50  31  48 N9        30.33R
FT SMITH       SUNNY     58  28  32 W8        30.31F
LITTLE ROCK    MOSUNNY   58  29  33 N9        30.28F

......OKLAHOMA.......

CITY           SKY/WX    TMP DP  RH WIND       PRES   REMARKS
TULSA          CLOUDY    48  31  51 N12G18    30.39R
MCALESTER      SUNNY     58  32  37 N12       30.34R
OKLAHOMA CITY  MOSUNNY   56  34  43 N12       30.36R

......IOWA............

CITY           SKY/WX    TMP DP  RH WIND       PRES   REMARKS
DES MOINES     NOT AVBL
QUAD CITIES    MOSUNNY   25  11  55 W20G31    30.29S WCI  11

......ILLINOIS........

CITY           SKY/WX    TMP DP  RH WIND       PRES   REMARKS
QUINCY         NOT AVBL
CHICAGO        PTSUNNY   21   8  57 NW18G25   30.15S WCI   6



USA.gov is the U.S. government's official web portal to all federal, state and local government web resources and services.